sat.trackr.live / text

‹ back to catalog

STARLINK-31917

NORAD 59669 · 2024-084R

PAYLOAD ACTIVE UNKNOWN

§ Identity

Operator
Country
US
Launch date
2024-05-06
Launch site
AFETR
Launch vehicle
Mass (kg)
RCS (m²)

Purposes: comms

External: N2YO · Heavens-Above · Gunter

§ Orbital elements

Epoch: 2026-05-25T04:42:41.389632Z

Period
94.27 min
Inclination
43.0019°
Eccentricity
0.0001362
Mean motion
15.27584896 rev/d
Perigee alt
482.1 km
Apogee alt
484.0 km
Semi-major
6,861.2 km
B*
1.2698e-4
RAAN
329.7346°
Arg perigee
278.3202°
Mean anomaly
81.7495°
Rev number
11,607

§ Raw data

STARLINK-319171 59669U 24084R   26145.19631238  .00003234  00000+0  12698-3 0  99942 59669  43.0019 329.7346 0001362 278.3202  81.7495 15.27584896116078

JSON: /api/v1/satellites/59669 · /tle

For live sub-satellite position, see the globe view (requires WebGL).

§ Visibility from observer

Set your observer location to see the next 7 days of passes ≥ 10°. The values pass through the URL so the page stays shareable.

No JS? Fill the form by hand. The geolocation button needs JavaScript.